| time (UTC) | temp C | wind direction | speed KPH | gust KPH | rain 1hr cm | rain 24hr cm | rain mn cm | humidity % | barometer mb |
| 20260510204535 | 29 | 228 | 4.8 | 12.9 | 0.00 | 0.10 | 0.03 | 58 | 1015.3 |
| 20260510203034 | 29 | 296 | 4.8 | 14.5 | 0.00 | 0.10 | 0.03 | 60 | 1015.3 |
| 20260510201531 | 28 | 248 | 3.2 | 11.3 | 0.00 | 0.10 | 0.03 | 62 | 1015.4 |
| 20260510200036 | 27 | 168 | 1.6 | 6.4 | 0.00 | 0.10 | 0.03 | 69 | 1015.5 |
| 20260510194537 | 27 | 171 | 0.0 | 6.4 | 0.00 | 0.10 | 0.03 | 66 | 1015.5 |
| 20260510193037 | 28 | 277 | 1.6 | 8.0 | 0.00 | 0.10 | 0.03 | 64 | 1015.5 |
| 20260510191539 | 28 | 173 | 1.6 | 8.0 | 0.00 | 0.10 | 0.03 | 65 | 1015.7 |
| 20260510190048 | 28 | 140 | 4.8 | 8.0 | 0.00 | 0.10 | 0.03 | 65 | 1015.7 |
| 20260510184547 | 27 | 194 | 1.6 | 12.9 | 0.00 | 0.10 | 0.03 | 67 | 1016.2 |
| 20260510183034 | 27 | 275 | 1.6 | 12.9 | 0.00 | 0.10 | 0.03 | 68 | 1016.2 |
| 20260510181551 | 26 | 264 | 3.2 | 12.9 | 0.00 | 0.10 | 0.03 | 68 | 1016.4 |
| 20260510180046 | 27 | 16 | 6.4 | 12.9 | 0.00 | 0.10 | 0.03 | 68 | 1016.6 |
| 20260510174540 | 26 | 38 | 6.4 | 11.3 | 0.00 | 0.15 | 0.03 | 70 | 1016.6 |
| 20260510173037 | 26 | 269 | 1.6 | 12.9 | 0.00 | 0.15 | 0.03 | 74 | 1016.7 |
| 20260510171550 | 26 | 5 | 3.2 | 9.7 | 0.00 | 0.15 | 0.03 | 73 | 1017.0 |
| 20260510170035 | 26 | 10 | 4.8 | 12.9 | 0.00 | 0.15 | 0.03 | 71 | 1017.3 |
| 20260510164535 | 26 | 96 | 1.6 | 6.4 | 0.00 | 0.41 | 0.03 | 72 | 1017.4 |
| 20260510163039 | 25 | 5 | 1.6 | 8.0 | 0.00 | 0.41 | 0.03 | 74 | 1017.2 |
| 20260510161536 | 25 | 321 | 1.6 | 11.3 | 0.00 | 0.41 | 0.03 | 74 | 1017.1 |
| 20260510160043 | 25 | 350 | 3.2 | 8.0 | 0.00 | 0.41 | 0.03 | 79 | 1017.2 |
| 20260510154600 | 24 | 318 | 3.2 | 8.0 | 0.00 | 1.24 | 0.03 | 78 | 1017.1 |
| 20260510153048 | 23 | 324 | 3.2 | 6.4 | 0.00 | 1.24 | 0.03 | 81 | 1017.1 |
| 20260510151535 | 23 | 0 | 0.0 | 4.8 | 0.00 | 1.24 | 0.03 | 83 | 1017.0 |
| 20260510150036 | 22 | 331 | 1.6 | 4.8 | 0.00 | 1.24 | 0.03 | 85 | 1017.2 |
| 20260510144548 | 22 | 330 | 1.6 | 6.4 | 0.00 | 3.05 | 0.03 | 86 | 1017.3 |
| 20260510143035 | 22 | 171 | 3.2 | 8.0 | 0.00 | 3.05 | 0.03 | 89 | 1017.4 |
| 20260510141533 | 21 | 69 | 0.0 | 3.2 | 0.00 | 3.05 | 0.03 | 94 | 1017.3 |
| 20260510140032 | 20 | 0 | 0.0 | 6.4 | 0.00 | 3.05 | 0.03 | 94 | 1017.1 |
| 20260510134605 | 20 | 0 | 0.0 | 4.8 | 0.00 | 3.63 | 0.03 | 94 | 1016.9 |
| 20260510133034 | 19 | 0 | 0.0 | 4.8 | 0.00 | 3.63 | 0.03 | 94 | 1016.8 |
| 20260510131536 | 19 | 0 | 0.0 | 3.2 | 0.00 | 3.63 | 0.03 | 94 | 1016.8 |
| 20260510130035 | 18 | 0 | 0.0 | 3.2 | 0.00 | 3.63 | 0.03 | 94 | 1016.6 |
| 20260510124542 | 18 | 0 | 0.0 | 0.0 | 0.00 | 3.63 | 0.03 | 94 | 1016.4 |
| 20260510123036 | 17 | 0 | 0.0 | 0.0 | 0.00 | 3.63 | 0.03 | 94 | 1016.2 |
| 20260510121535 | 17 | 0 | 0.0 | 1.6 | 0.00 | 3.63 | 0.03 | 94 | 1015.9 |
| 20260510120034 | 17 | 0 | 0.0 | 0.0 | 0.00 | 3.63 | 0.03 | 94 | 1015.7 |
| 20260510114530 | 17 | 0 | 0.0 | 0.0 | 0.03 | 3.66 | 0.03 | 94 | 1015.5 |
| 20260510113036 | 17 | 0 | 0.0 | 0.0 | 0.03 | 3.66 | 0.03 | 94 | 1015.4 |
| 20260510111543 | 17 | 0 | 0.0 | 0.0 | 0.03 | 3.66 | 0.03 | 94 | 1015.2 |
| 20260510110037 | 17 | 0 | 0.0 | 0.0 | 0.03 | 3.66 | 0.03 | 94 | 1014.9 |
| 20260510104550 | 17 | 0 | 0.0 | 0.0 | 0.00 | 3.63 | 0.00 | 94 | 1014.8 |
| 20260510103034 | 17 | 0 | 0.0 | 0.0 | 0.00 | 3.63 | 0.00 | 94 | 1014.5 |
| 20260510101539 | 17 | 0 | 0.0 | 0.0 | 0.00 | 3.63 | 0.00 | 94 | 1014.4 |
| 20260510100040 | 17 | 0 | 0.0 | 0.0 | 0.00 | 3.63 | 0.00 | 94 | 1014.1 |
| 20260510094536 | 17 | 0 | 0.0 | 1.6 | 0.00 | 3.66 | 0.00 | 94 | 1014.1 |
| 20260510093036 | 17 | 0 | 0.0 | 0.0 | 0.00 | 3.66 | 0.00 | 94 | 1014.0 |
| 20260510091536 | 17 | 0 | 0.0 | 0.0 | 0.00 | 3.66 | 0.00 | 94 | 1013.9 |
| 20260510090040 | 17 | 0 | 0.0 | 0.0 | 0.00 | 3.66 | 0.00 | 93 | 1013.8 |
| 20260510084547 | 17 | 0 | 0.0 | 3.2 | 0.00 | 3.73 | 0.00 | 94 | 1013.9 |
| 20260510083042 | 17 | 0 | 0.0 | 1.6 | 0.00 | 3.73 | 0.00 | 94 | 1013.8 |
| 20260510081537 | 17 | 0 | 0.0 | 3.2 | 0.00 | 3.73 | 0.00 | 93 | 1013.5 |
| 20260510080034 | 18 | 0 | 0.0 | 0.0 | 0.00 | 3.73 | 0.00 | 93 | 1013.2 |
| 20260510074544 | 18 | 0 | 0.0 | 0.0 | 0.00 | 3.76 | 0.00 | 93 | 1013.1 |
| 20260510073047 | 18 | 0 | 0.0 | 0.0 | 0.00 | 3.76 | 0.00 | 93 | 1013.0 |
| 20260510071536 | 18 | 0 | 0.0 | 0.0 | 0.00 | 3.76 | 0.00 | 93 | 1012.8 |
| 20260510070038 | 18 | 0 | 0.0 | 0.0 | 0.00 | 3.76 | 0.00 | 93 | 1012.7 |
| 20260510064531 | 18 | 0 | 0.0 | 0.0 | 0.00 | 3.76 | 0.00 | 93 | 1012.5 |
| 20260510063037 | 18 | 0 | 0.0 | 1.6 | 0.00 | 3.76 | 0.00 | 93 | 1012.8 |
| 20260510061545 | 18 | 0 | 0.0 | 3.2 | 0.00 | 3.76 | 0.00 | 93 | 1012.9 |
| 20260510060042 | 18 | 0 | 0.0 | 0.0 | 0.00 | 3.76 | 0.00 | 93 | 1013.6 |
| 20260510054535 | 18 | 0 | 0.0 | 0.0 | 0.00 | 3.76 | 0.00 | 93 | 1013.7 |
| 20260510053036 | 19 | 0 | 0.0 | 0.0 | 0.00 | 3.76 | 0.00 | 93 | 1014.0 |
| 20260510051541 | 19 | 0 | 0.0 | 0.0 | 0.00 | 3.76 | 0.00 | 93 | 1014.0 |
| 20260510050038 | 18 | 0 | 0.0 | 4.8 | 0.00 | 3.76 | 0.00 | 93 | 1013.3 |
| 20260510044536 | 18 | 0 | 0.0 | 3.2 | 0.00 | 3.76 | 3.76 | 93 | 1013.2 |
| 20260510043035 | 18 | 0 | 0.0 | 3.2 | 0.00 | 3.76 | 3.76 | 93 | 1014.0 |
| 20260510041540 | 18 | 0 | 0.0 | 1.6 | 0.00 | 3.76 | 3.76 | 93 | 1014.3 |
| 20260510040040 | 18 | 0 | 0.0 | 0.0 | 0.00 | 3.76 | 3.76 | 93 | 1014.5 |
| 20260510034535 | 18 | 0 | 0.0 | 0.0 | 0.00 | 3.78 | 3.76 | 93 | 1014.1 |
| 20260510033034 | 19 | 0 | 0.0 | 0.0 | 0.00 | 3.78 | 3.76 | 93 | 1014.1 |
| 20260510031542 | 19 | 0 | 0.0 | 0.0 | 0.00 | 3.78 | 3.76 | 93 | 1014.2 |
| 20260510030041 | 19 | 0 | 0.0 | 0.0 | 0.00 | 3.78 | 3.76 | 93 | 1013.9 |
| 20260510024539 | 19 | 0 | 0.0 | 0.0 | 0.00 | 3.81 | 3.76 | 93 | 1013.5 |
| 20260510023042 | 19 | 0 | 0.0 | 3.2 | 0.00 | 3.81 | 3.76 | 93 | 1013.5 |
| 20260510021537 | 19 | 0 | 0.0 | 1.6 | 0.00 | 3.81 | 3.76 | 93 | 1014.0 |
| 20260510020035 | 19 | 0 | 0.0 | 0.0 | 0.03 | 3.81 | 3.76 | 93 | 1013.7 |
| 20260510014533 | 19 | 0 | 0.0 | 0.0 | 0.03 | 3.86 | 3.76 | 93 | 1013.6 |
| 20260510013047 | 19 | 0 | 0.0 | 0.0 | 0.03 | 3.86 | 3.76 | 93 | 1013.9 |
| 20260510011557 | 19 | 0 | 0.0 | 0.0 | 0.03 | 3.86 | 3.76 | 93 | 1013.7 |
| 20260510010034 | 19 | 0 | 0.0 | 0.0 | 0.00 | 3.84 | 3.73 | 93 | 1014.0 |
| 20260510004536 | 19 | 0 | 0.0 | 4.8 | 0.00 | 3.86 | 3.73 | 92 | 1013.7 |
| 20260510003033 | 19 | 0 | 0.0 | 0.0 | 0.03 | 3.86 | 3.73 | 92 | 1013.0 |
| 20260510001540 | 19 | 0 | 0.0 | 3.2 | 0.03 | 3.86 | 3.73 | 92 | 1013.0 |
| 20260510000037 | 19 | 0 | 0.0 | 4.8 | 0.03 | 3.86 | 3.73 | 92 | 1013.0 |
| 20260509234539 | 20 | 0 | 0.0 | 1.6 | 0.03 | 3.86 | 3.73 | 92 | 1012.7 |
| 20260509233036 | 20 | 97 | 1.6 | 8.0 | 0.00 | 3.84 | 3.71 | 92 | 1012.4 |
| 20260509231551 | 20 | 0 | 0.0 | 3.2 | 0.00 | 3.84 | 3.71 | 91 | 1012.3 |
| 20260509230041 | 20 | 47 | 1.6 | 6.4 | 0.00 | 3.84 | 3.71 | 91 | 1012.9 |
| 20260509224537 | 20 | 0 | 0.0 | 1.6 | 0.00 | 3.91 | 3.71 | 91 | 1013.0 |
| 20260509223035 | 20 | 0 | 0.0 | 1.6 | 0.00 | 3.91 | 3.71 | 91 | 1012.8 |
| 20260509221533 | 20 | 0 | 0.0 | 1.6 | 0.00 | 3.91 | 3.71 | 91 | 1012.3 |
| 20260509220041 | 20 | 344 | 3.2 | 8.0 | 0.00 | 3.91 | 3.71 | 90 | 1012.6 |
| 20260509214536 | 20 | 0 | 0.0 | 4.8 | 0.00 | 4.37 | 3.71 | 91 | 1012.6 |
| 20260509213042 | 20 | 0 | 0.0 | 4.8 | 0.00 | 4.37 | 3.71 | 91 | 1012.4 |
| 20260509211545 | 20 | 309 | 0.0 | 1.6 | 0.03 | 4.37 | 3.71 | 91 | 1012.2 |
| 20260509210040 | 20 | 0 | 0.0 | 0.0 | 0.03 | 4.37 | 3.71 | 91 | 1012.4 |